Location: Chassagnes
(44.4047°N, 4.1657°E)
Time: 13:04:39
(UTC+00:00)

Cosmos 44 Rocket - Pass Details

Date: 27 October 2020
Orbit: 642 x 748 km, 65.1° (Epoch: 23 November)

Event Time Altitude Azimuth Distance (km) Brightness Sun altitude
Rises 18:29:24 0° 194° (SSW) 2,971 6.7 -20.2°
Reaches altitude 10° 18:31:45 10° 187° (S) 2,077 5.8 -20.6°
Enters shadow 18:35:26 40° 143° (SE) 999 3.8 -21.3°
